Погода Николаевск-
на-Амуре

Хотите узнать прогноз погоды Николаевск-
на-Амуре? Тогда Вам сюда: Погода Николаевск-
на-Амуре

Поиск расширенной информации на нашем сайте:

Полезная информация:

Новости сайта



02.01.2020
Опубликован Долгосрочный прогноз погоды по городам России и ближнего зарубежья на январь 2020 года.
Карты: Прогноз на январь и февраль 2020 года, Сравнение прогнозируемой аномалии приземной температуры воздуха на январь 2020 года по разным моделям.




Погода Николаевск-
на-Амуре - сегодня

Время (UTC), дата Ветер
(°,м/с) 
Видим.   Явления Облачность Т
(°С)
Тd
(°С)
f(%) Тe
(°С)
Pmin
(гПа)
dP
(гПа)
Po
(мм)
O2
(г/м3)
Тmin Tmax R s Состояние
почвы
06 01.06.20 050 (СВ) 20000 м  {ливн. осадки}  10/10 600 м кучево-дожд. 
[Cb cap]
+10.7 +6.8 77 +10  1007.5  -0.1  752  290           
09 01.06.20 050 (СВ) 20000 м  в посл. час ливневой дождь  10/10 600 м кучево-дожд. 
[Cb cap]
+7.5 +4.2 80 +7  1008.1  0.5  752  294    +11.7  0.9     
12 01.06.20 030 (СВ) 20000 м  {ливн. осадки}  8/8 600 м кучево-дожд. 
[Cb cap]
+5.6 +2.6 81 +5  1008.9  0.7  752  297           
15 01.06.20 040 (СВ) 20000 м    8/8 600 м кучево-дожд. 
[Cb cap]
+4.6 +2.3 85 +4  1008.3  -0.6  752  298           
18 01.06.20 050 (СВ) 20000 м    10/10 600 м кучево-дожд. 
[Cb cap]
+5.1 +3 86 +4  1006.7  -1.5  751  297           
21 01.06.20 100 (В) 20000 м    10/10 600 м кучево-дожд. 
[Cb cap]
+5.9 +4.2 89 +5  1006.2  -0.5  750  295  +4.6        мокрая 
00 02.06.20 090 (В) 20000 м  в посл. час морось  ясно 
+6.7 +5 89 +5  1005.7  -0.5  750  294           
03 02.06.20 080 (В) 20000 м    10/10 200 м 
[St]
+8.7 +6.1 84 +8  1004.6  -1.1  749  292           
06 02.06.20 120 (ЮВ) 20000 м    10/10 300 м 
[St]
+11.4 +8.1 80 +11  1004.1  -0.4  749  288           
09 02.06.20 120 (ЮВ) 20000 м    10/10 600 м 
[Sc]
+12.3 +8.8 79 +12  1003.9  -0.2  749  287    +12.6  0.0     
12 02.06.20 090 (В) 20000 м    10/10 300 м 
[Sc]
+9.8 +7.1 83 +9  1005  750  290           
15 02.06.20 090 (В) 20000 м    10/10 300 м 
[Sc]
+8.2 +6.2 87 +8  1004.6  -0.3  749  292           
18 02.06.20 080 (В) 20000 м    10/10 300 м 
[Sc]
+7 +5.2 88 +7  1004  -0.6  749  293           
21 02.06.20 080 (В) 20000 м    10/10 200 м 
[St]
+6.8 +4.8 87 +7  1004.7  0.7  749  294  +6.7        влажная 
00 03.06.20 080 (В) 20000 м    10/10 600 м 
[Sc]
+7.9 +5.3 84 +8  1005.4  0.7  750  293           
03 03.06.20 110 (В) 20000 м    10/10 600 м 
[Sc]
+9.6 +6.2 79 +9  1005  -0.4  750  291           
06 03.06.20 040 (СВ) 20000 м    10/10 600 м 
[Sc]
+8.2 +4.4 77 +8  1005.4  0.4  750  293           
09 03.06.20 040 (СВ) 20000 м    10/10 600 м 
[Sc]
+5.5 +2.8 83 +3  1006.6  1.1  751  296    +9.9       
12 03.06.20 020 (С) 20000 м    10/10 600 м 
[Sc]
+4.6 +2.7 87 +4  1008.3  1.6  752  298           
15 03.06.20 360 (С) 10 км  слаб. дождь  10/10 600 м 
[Sc]
+4.2 +3 92 +5  1008.5  0.2  752  298           
18 03.06.20 330 (СЗ) 10 км  в посл. час дождь  10/10 600 м 
[Sc]
+3.9 +2.3 89 +2  1008.3  -0.2  752  298           
21 03.06.20 350 (С) 20000 м  слаб. дождь  10/10 600 м 
[Sc]
+4 +1.9 86 +3  1009.4  753  299  +3.7      влажная 
00 04.06.20 350 (С) 20000 м  в посл. час ливневой дождь  10/10 200 м кучево-дожд. 
[Cb cap]
+4.2 +2 86 +2  1010.2  0.8  753  299  +3.3         
03 04.06.20 340 (С) 20000 м    10/10 600 м кучево-дожд. 
[Cb cap]
+5 +2.6 84 +3  1010.2  753  298           
06 04.06.20 330 (СЗ) 20000 м    10/10 600 м кучево-дожд. 
[Cb cap]
+5.1 +2.7 84 +3  1010.9  0.7  754  298           
Время (UTC), дата Ветер
(°,м/с) 
Видим.   Явления Облачность Т
(°С)
Тd
(°С)
f(%) Тe
(°С)
Pmin
(гПа)
dP
(гПа)
Po
(мм)
O2
(г/м3)
Тmin Tmax R s Состояние
почвы

Для получения пояснительной информации подведите курсор к названию столбца.

ПОГОДА Николаевск-
на-Амуре - архив

Всё, что Вы хотите узнать о погоде Николаевск-
на-Амуре - удобно и подробно!

Выберите нужную дату (начиная с 1 января 2019* года) и нажмите кнопку "Найти".
Будут отображены архивные сводки погоды по пункту Николаевск-
на-Амуре, начиная с указанной даты.


Отображать данные в формате CSV (для использования в таблицах Excel)


Внимание! Наш архив погоды предназначен исключительно для личного некоммерческого использования в познавательных целях. Если Вам необходимы официальные справки о состоянии погоды (для производственных, юридических, коммерческих и т.п. целей), обращайтесь в органы Росгидромета.

*Примечание: данная дата относится к архиву по метеостанциям СССР (Россия, СНГ, Балтия).
Архив по метеостанциям Зарубежной Европы и Азии (кроме Китая) хранится 10 дней, по другим регионам земного шара (Китай, Африка, Америка, Австралия, Океания) - 1 день.

Николаевск-
на-Амуре - район местоположения метеостанции


Название, широта, долгота, высота метеостанции:
Николаевск-на-Амуре 53.2°ш. 140.7°д. 68 м над ур. моря [Российская Федерация]

Дополнительная информация

В oтличие oт бoльшинства пoгoдных сайтoв мы публикуем пoдрoбную метеoинфoрмацию в детальнoм прoфессиoнальнoм фoрмате.

Характеристики температуры и влажнoсти вoздуха измеряются на высoте 2 м в тени вдали oт зданий и деревьев.
Скoрoсть ветра измеряется на высoте 10 м (на урoвне рoста челoвека скoрoсть ветра ниже в 1.5-2 раза). Если метеoстанция нахoдится в гoрoде или в лесу, тo скoрoсть ветра занижена на 2-4 м/с пo сравнению с oткрытым местoм. Скoрoсть ветра над акватoриями крупных рек и oзёр, а также на вершинах хoлмoв на 2-5 м/с выше, чем в oбычных услoвиях.
Атмoсфернoе давление в разных тoчках местнoсти мoжет значительнo oтличаться oт давления на метеoстанции, в зависимoсти oт услoвий рельефа (при пoдъёме на 10 м давление пoнижается примернo на 1 мм рт.ст.).